EXS38N LGSM-EGCC

Flight info

Callsign EXS38N
Flight time N/A
Altitude 40000
Route URNIL2B URNIL UL609 MES UL618 LMO UN128 FSK UL608 DISOR DCT LONTA UL608 DOLEV DCT PODOB DCT TIMID DCT NORPI DCT MARIL DCT OKSIG DCT VEKEN DCT UMVEG DCT KPT DCT VEKIR DCT ADENU L608 LIRSU DCT BUB L608 DENUT L610 LAM UN57 WELIN T420 ELVOS ELVOS1M
Aircraft B738/M-SDE2E3FGHIRWXY/LB1

Departure

Time 2026-05-04 17:44
Airport Samos Airport (LGSM)

Arrival

Time N/A
Airport Manchester Airport (EGCC)
Time Latitude Longitude Altitude Speed Heading
2026-05-04 17:44 37.48647 26.89681 8250 ft 269 kts 252°
2026-05-04 17:44 37.48335 26.87383 8606 ft 273 kts 279°
2026-05-04 17:45 37.48878 26.85154 9372 ft 265 kts 305°
2026-05-04 17:45 37.50183 26.83569 10144 ft 263 kts 333°
2026-05-04 17:45 37.51987 26.82988 10522 ft 282 kts 358°
2026-05-04 17:45 37.54006 26.83339 10694 ft 307 kts 15°
2026-05-04 17:46 37.56056 26.84381 10971 ft 326 kts 20°
2026-05-04 17:46 37.58164 26.85529 11519 ft 332 kts 20°
2026-05-04 17:46 37.60311 26.86617 12287 ft 332 kts 15°
2026-05-04 17:46 37.62544 26.86971 12988 ft 330 kts 353°
2026-05-04 17:47 37.64744 26.86186 13709 ft 331 kts 334°
2026-05-04 17:47 37.66627 26.84493 14338 ft 338 kts 316°
2026-05-04 17:47 37.67991 26.82054 14978 ft 346 kts 299°
2026-05-04 17:47 37.68662 26.79110 15614 ft 357 kts 280°
2026-05-04 17:48 37.68728 26.75948 16275 ft 362 kts 275°
2026-05-04 17:48 37.68686 26.72755 16863 ft 366 kts 274°
2026-05-04 17:48 37.68647 26.70617 17257 ft 368 kts 275°
2026-05-04 17:48 37.68583 26.66276 18076 ft 371 kts 275°
2026-05-04 17:49 37.68556 26.63006 18632 ft 374 kts 276°
2026-05-04 17:49 37.68540 26.59752 19067 ft 378 kts 275°
2026-05-04 17:49 37.68542 26.56420 19517 ft 379 kts 279°
2026-05-04 17:49 37.69152 26.53242 19895 ft 372 kts 301°
2026-05-04 17:50 37.70602 26.50580 20415 ft 367 kts 315°
2026-05-04 17:50 37.72442 26.48350 20907 ft 367 kts 321°
2026-05-04 17:50 37.74402 26.46254 21345 ft 371 kts 322°
2026-05-04 17:50 37.76399 26.44162 21786 ft 375 kts 322°
2026-05-04 17:51 37.78379 26.42066 22238 ft 378 kts 322°
2026-05-04 17:51 37.80385 26.39907 22693 ft 381 kts 322°
2026-05-04 17:51 37.82401 26.37712 23136 ft 384 kts 321°
2026-05-04 17:51 37.84438 26.35481 23453 ft 390 kts 321°
2026-05-04 17:52 37.86494 26.33225 23816 ft 394 kts 321°
2026-05-04 17:52 37.88569 26.30948 24202 ft 395 kts 322°
2026-05-04 17:52 37.90656 26.28663 24570 ft 398 kts 322°
2026-05-04 17:52 37.92754 26.26368 24905 ft 401 kts 322°
2026-05-04 17:53 37.94871 26.24048 25191 ft 404 kts 322°
2026-05-04 17:53 37.97010 26.21701 25488 ft 408 kts 322°
2026-05-04 17:53 37.99128 26.19375 25819 ft 410 kts 322°
2026-05-04 17:53 38.01292 26.16996 26150 ft 413 kts 322°
2026-05-04 17:54 38.03468 26.14602 26467 ft 415 kts 322°
2026-05-04 17:54 38.05658 26.12192 26775 ft 418 kts 322°
2026-05-04 17:54 38.07862 26.09765 27074 ft 421 kts 322°
2026-05-04 17:54 38.10080 26.07322 27370 ft 423 kts 322°
2026-05-04 17:55 38.12305 26.04868 27660 ft 426 kts 322°
2026-05-04 17:55 38.14555 26.02385 27863 ft 431 kts 322°
2026-05-04 17:55 38.16792 25.99912 28126 ft 433 kts 322°
2026-05-04 17:55 38.19070 25.97393 28436 ft 435 kts 322°
2026-05-04 17:56 38.21355 25.94864 28686 ft 437 kts 322°
2026-05-04 17:56 38.23701 25.92399 28829 ft 439 kts 328°
2026-05-04 17:56 38.26317 25.90391 29065 ft 439 kts 336°
2026-05-04 17:56 38.29131 25.88913 29371 ft 437 kts 345°
2026-05-04 17:57 38.32049 25.87826 29675 ft 437 kts 346°
2026-05-04 17:57 38.34976 25.86742 29983 ft 438 kts 346°
2026-05-04 17:57 38.37857 25.85635 30319 ft 438 kts 345°
2026-05-04 17:57 38.40766 25.84495 30660 ft 437 kts 345°
2026-05-04 17:58 38.43657 25.83354 31004 ft 435 kts 345°
2026-05-04 17:58 38.46547 25.82213 31319 ft 434 kts 345°
2026-05-04 17:58 38.49432 25.81073 31634 ft 433 kts 345°
2026-05-04 17:58 38.52312 25.79936 31952 ft 432 kts 345°
2026-05-04 17:59 38.55183 25.78803 32277 ft 431 kts 345°
2026-05-04 17:59 38.58047 25.77673 32579 ft 430 kts 345°
2026-05-04 17:59 38.63762 25.75416 33060 ft 432 kts 345°
2026-05-04 18:00 38.66601 25.74296 33228 ft 433 kts 345°
2026-05-04 18:00 38.69477 25.73158 33528 ft 432 kts 345°
2026-05-04 18:00 38.72340 25.72024 33888 ft 429 kts 345°
2026-05-04 18:00 38.75184 25.70893 34161 ft 428 kts 344°
2026-05-04 18:01 38.78032 25.69761 34349 ft 428 kts 344°
2026-05-04 18:01 38.80879 25.68628 34582 ft 428 kts 344°
2026-05-04 18:01 38.83717 25.67498 34832 ft 426 kts 344°
2026-05-04 18:02 38.89353 25.65253 35164 ft 427 kts 343°
2026-05-04 18:02 38.92185 25.64123 35383 ft 426 kts 343°
2026-05-04 18:02 38.95015 25.63006 35603 ft 425 kts 343°
2026-05-04 18:02 38.97836 25.61874 35822 ft 424 kts 342°
2026-05-04 18:03 39.00642 25.60733 36000 ft 423 kts 342°
2026-05-04 18:03 39.03462 25.59603 36081 ft 425 kts 342°
2026-05-04 18:03 39.09117 25.57345 36089 ft 425 kts 343°
2026-05-04 18:04 39.14747 25.55091 36081 ft 422 kts 343°
2026-05-04 18:05 39.23073 25.51745 36087 ft 418 kts 343°
2026-05-04 18:05 39.28615 25.49512 36087 ft 417 kts 343°
2026-05-04 18:06 39.36921 25.46158 36091 ft 418 kts 343°
2026-05-04 18:06 39.42443 25.43923 36093 ft 419 kts 343°
2026-05-04 18:07 39.48032 25.41658 36090 ft 422 kts 343°
2026-05-04 18:07 39.53645 25.39381 36082 ft 424 kts 343°
2026-05-04 18:08 39.59297 25.37085 36079 ft 427 kts 343°
2026-05-04 18:08 39.64975 25.34767 36079 ft 429 kts 343°
2026-05-04 18:09 39.76339 25.30118 36077 ft 430 kts 343°
2026-05-04 18:10 39.82048 25.27780 36072 ft 430 kts 343°
2026-05-04 18:10 39.87751 25.25440 36075 ft 429 kts 341°
2026-05-04 18:11 39.90452 25.23808 36071 ft 430 kts 328°
2026-05-04 18:11 39.92851 25.21484 36083 ft 431 kts 319°
2026-05-04 18:11 39.94871 25.18674 36074 ft 433 kts 308°
2026-05-04 18:11 39.96622 25.15483 36087 ft 432 kts 307°
2026-05-04 18:12 40.00043 25.09034 36072 ft 432 kts 306°
2026-05-04 18:12 40.03473 25.02589 36069 ft 432 kts 307°
2026-05-04 18:13 40.06920 24.96188 36064 ft 431 kts 307°
2026-05-04 18:14 40.12060 24.86635 36060 ft 430 kts 307°
2026-05-04 18:14 40.15491 24.80251 36062 ft 429 kts 307°
2026-05-04 18:15 40.22307 24.67530 36063 ft 428 kts 307°
2026-05-04 18:16 40.25719 24.61143 36064 ft 428 kts 307°
2026-05-04 18:16 40.29127 24.54751 36062 ft 428 kts 307°
2026-05-04 18:17 40.34228 24.45157 36063 ft 428 kts 306°
2026-05-04 18:18 40.39310 24.35570 36055 ft 429 kts 306°